Gillette, WY

11:40 AM MST on February 19, 2018 (GMT -0700)
Gillette-Campbell County

Weather History for KGCC - October, 2014

Change the Weather History Date:

Monday, October 27, 2014

  Actual Average Record
Temperature  
Mean Temperature 40 °F 41 °F  
Max Temperature 51 °F 55 °F 78 °F (1944)
Min Temperature 28 °F 28 °F 2 °F (1925)
Degree Days  
Heating Degree Days 25 24  
Month to date heating degree days 356 517  
Since 1 July heating degree days 632 812  
Cooling Degree Days 0 0  
Month to date cooling degree days 0 0  
Year to date cooling degree days 412 500  
Moisture  
Dew Point 25 °F    
Average Humidity 56    
Maximum Humidity 78    
Minimum Humidity 34    
Precipitation  
Precipitation T in 0.03 in 0.31 in (1946)
Month to date precipitation 0.59 1.17  
Year to date precipitation 17.14 12.84  
Sea Level Pressure  
Sea Level Pressure 29.93 in    
Wind  
Wind Speed 13 mph (NW)    
Max Wind Speed 29 mph    
Max Gust Speed 36 mph    
Visibility 10 miles    
Events      
T = Trace of Precipitation, MM = Missing Value Source: NWS Daily Summary

Daily Weather History Graph

Daily Weather History Graph

Search for Another Location

Airport or City:

Trip Planner

Search our weather history database for the weather conditions in past years. The results will help you decide how hot, cold, wet, or windy it might be!

Date:

Astronomy

Oct. 27, 2014 Rise Set
Actual Time 7:32 AM MDT 5:58 PM MDT
Civil Twilight 7:02 AM MDT 6:28 PM MDT
Nautical Twilight 6:28 AM MDT 7:02 PM MDT
Astronomical Twilight 5:55 AM MDT 7:36 PM MDT
Moon 11:15 AM MDT (10/27) 9:02 PM MDT (10/27)
Length of Visible Light 11h 25m
Length of Day
10h 25m
Waxing Crescent, 16% of the Moon is Illuminated
Oct 27
Waxing Crescent
Oct 30
First Quarter
Nov 6
Full
Nov 14
Last Quarter
Nov 22
New

Hourly Weather History & Observations

Time (MDT) Temp. Windchill Dew Point Humidity Pressure Visibility Wind Dir Wind Speed Gust Speed Precip Events Conditions
12:53 AM 41.0 °F 39.0 °F 30.9 °F 67% 29.73 in 10.0 mi SE 3.5 mph - N/A   Overcast
1:53 AM 39.9 °F - 32.0 °F 73% 29.75 in 10.0 mi Calm Calm - 0.00 in   Overcast
2:53 AM 39.9 °F 35.8 °F 30.9 °F 70% 29.76 in 10.0 mi West 5.8 mph - N/A   Overcast
3:53 AM 42.1 °F 34.2 °F 27.0 °F 55% 29.78 in 10.0 mi NNW 16.1 mph - N/A   Overcast
4:53 AM 42.1 °F 34.5 °F 25.0 °F 51% 29.80 in 10.0 mi NNW 15.0 mph 24.2 mph N/A   Overcast
5:53 AM 41.0 °F 34.3 °F 23.0 °F 49% 29.82 in 10.0 mi NW 11.5 mph - N/A   Scattered Clouds
6:53 AM 39.0 °F 31.8 °F 21.9 °F 50% 29.86 in 10.0 mi WNW 11.5 mph - N/A   Clear
7:53 AM 34.0 °F 26.0 °F 21.9 °F 61% 29.91 in 10.0 mi West 10.4 mph - N/A   Scattered Clouds
8:53 AM 41.0 °F 34.3 °F 23.0 °F 49% 29.91 in 10.0 mi WNW 11.5 mph - N/A   Mostly Cloudy
9:53 AM 44.1 °F 36.8 °F 23.0 °F 43% 29.92 in 10.0 mi NW 16.1 mph 26.5 mph N/A   Clear
10:53 AM 46.4 °F 39.0 °F 23.0 °F 40% 29.93 in 10.0 mi WNW 19.6 mph 29.9 mph N/A   Partly Cloudy
11:53 AM 45.0 °F 36.2 °F 21.9 °F 40% 29.97 in 10.0 mi NW 24.2 mph 34.5 mph N/A   Scattered Clouds
12:53 PM 48.0 °F - 24.1 °F 39% 29.93 in 10.0 mi NW 21.9 mph 28.8 mph N/A   Mostly Cloudy
1:53 PM 48.0 °F - 23.0 °F 37% 29.93 in 10.0 mi NW 24.2 mph 31.1 mph N/A   Mostly Cloudy
2:53 PM 48.9 °F - 21.0 °F 33% 29.93 in 10.0 mi WNW 18.4 mph 29.9 mph N/A   Clear
3:53 PM 48.0 °F - 21.0 °F 34% 29.94 in 10.0 mi NNW 23.0 mph 28.8 mph N/A   Mostly Cloudy
4:53 PM 45.0 °F 36.6 °F 25.0 °F 46% 29.98 in 10.0 mi North 21.9 mph 25.3 mph N/A   Overcast
5:53 PM 41.0 °F 34.7 °F 26.1 °F 55% 30.01 in 10.0 mi North 10.4 mph - N/A   Mostly Cloudy
6:53 PM 30.9 °F 26.2 °F 24.1 °F 76% 30.06 in 10.0 mi West 4.6 mph - N/A   Clear
7:53 PM 30.9 °F 27.5 °F 25.0 °F 79% 30.09 in 10.0 mi WNW 3.5 mph - N/A   Mostly Cloudy
8:53 PM 36.0 °F 30.3 °F 28.0 °F 73% 30.06 in 10.0 mi WNW 6.9 mph - N/A   Overcast
9:53 PM 30.9 °F 22.2 °F 25.0 °F 79% 30.10 in 10.0 mi WNW 10.4 mph - N/A   Scattered Clouds
10:53 PM 30.9 °F 22.2 °F 25.0 °F 79% 30.11 in 10.0 mi West 10.4 mph - N/A   Mostly Cloudy
11:53 PM 28.0 °F 18.1 °F 23.0 °F 81% 30.12 in 10.0 mi West 11.5 mph - N/A   Clear